This demonstration page uses our WeatherBlox Daily Observations layout. Learn more.

Left ArrowRight Arrow

34.16533, -84.80231

Hourly Observations for March 27, 2021

Temp ( °F °C ) Dew Point ( °F °C ) Humidity (%) Winds ( mph kmh ) Pressure ( in mb ) Visibility ( mi km ) Precip ( " mm )
12:53 am 00:53 Cloudy 62 16.7 56 13.3 80 80 Calm 30.10 1019 10 16 0.00 0.00
1:53 am 01:53 Cloudy 62 16.7 56 13.3 80 80 N 3 6 30.09 1019 10 16 0.00 0.00
2:53 am 02:53 Mostly Cloudy 63 17.2 57 13.9 81 81 Calm 30.08 1019 10 16 0.00 0.00
3:53 am 03:53 Cloudy 63 17.2 58 14.4 84 84 Calm 30.08 1019 10 16 0.00 0.00
4:53 am 04:53 Cloudy 63 17.2 57 13.9 81 81 NNE 3 6 30.08 1019 10 16 0.00 0.00
5:53 am 05:53 Cloudy 63 17.2 58 14.4 84 84 Calm 30.09 1019 10 16 0.00 0.00
6:01 am 06:01 Cloudy 62 16.7 59 15 90 90 Calm 30.11 1020 9 14 0.00 0.00
6:53 am 06:53 Mostly Cloudy 62 16.7 58 14.4 86 86 NE 3 6 30.08 1019 10 16 0.00 0.00
7:04 am 07:04 Partly Cloudy 62 16.7 58 14.4 86 86 NE 3 6 30.10 1019 10 16 0.00 0.00
7:30 am 07:30 Mostly Cloudy 62 16.7 58 14.4 86 86 Calm 30.10 1019 10 16 0.00 0.00
7:41 am 07:41 Mostly Cloudy 63 17.2 59 15 87 87 N 3 6 30.11 1020 10 16 0.00 0.00
7:53 am 07:53 Cloudy 63 17.2 59 15 87 87 Calm 30.09 1019 10 16 0.00 0.00
8:02 am 08:02 Cloudy 64 17.8 60 15.6 87 87 SSE 3 6 30.11 1020 8 13 0.00 0.00
8:11 am 08:11 Cloudy 64 17.8 61 16.1 90 90 Calm 30.11 1020 9 14 0.00 0.00
8:53 am 08:53 Cloudy 66 18.9 61 16.1 84 84 ENE 3 6 30.09 1019 9 14 0.00 0.00
9:02 am 09:02 Cloudy 66 18.9 61 16.1 84 84 E 3 6 30.11 1019 10 16 0.00 0.00
9:27 am 09:27 Cloudy 68 20 63 17.2 84 84 Calm 30.11 1020 10 16 0.00 0.00
9:53 am 09:53 Cloudy 70 21.1 65 18.3 84 84 S 5 7 30.10 1019 10 16 0.00 0.00
10:53 am 10:53 Cloudy 72 22.2 65 18.3 79 79 SSW 6 9 30.12 1020 10 16 0.00 0.00
11:53 am 11:53 Cloudy 76 24.4 65 18.3 69 69 VRB 5 7 30.11 1020 10 16 0.00 0.00
12:12 pm 12:12 Mostly Cloudy 78 25.6 65 18.3 64 64 VRB 7 11 30.10 1019 10 16 0.00 0.00
12:53 pm 12:53 Cloudy 78 25.6 64 17.8 62 62 VRB 3 6 30.09 1019 10 16 0.00 0.00
1:53 pm 13:53 Mostly Cloudy 82 27.8 63 17.2 53 53 VRB 6 9 30.06 1018 10 16 0.00 0.00
2:53 pm 14:53 Mostly Cloudy 83 28.3 62 16.7 49 49 VRB 6 9 30.03 1017 10 16 0.00 0.00
3:53 pm 15:53 Mostly Cloudy 84 28.9 61 16.1 46 46 SSW 13 20 30.01 1016 10 16 0.00 0.00
4:53 pm 16:53 Sunny 83 28.3 61 16.1 48 48 SSW 8 13 29.99 1016 10 16 0.00 0.00
5:53 pm 17:53 Sunny 83 28.3 61 16.1 48 48 SSW 8 13 29.98 1015 10 16 0.00 0.00
6:53 pm 18:53 Cloudy 81 27.2 61 16.1 51 51 SSW 6 9 29.97 1015 10 16 0.00 0.00
7:53 pm 19:53 Mostly Sunny 79 26.1 63 17.2 58 58 S 5 7 29.98 1015 10 16 0.00 0.00
8:53 pm 20:53 Clear 78 25.6 63 17.2 60 60 S 3 6 29.97 1015 10 16 0.00 0.00
9:53 pm 21:53 Clear 78 25.6 63 17.2 60 60 VRB 6 9 29.96 1015 10 16 0.00 0.00
10:53 pm 22:53 Clear 76 24.4 63 17.2 64 64 S 5 7 29.95 1014 10 16 0.00 0.00
11:53 pm 23:53 Clear 76 24.4 62 16.7 62 62 S 10 17 29.94 1014 10 16 0.00 0.00

Powered by AerisWeather